#�ϑ�����,���ϕ���,���ϕ���,�ő啗��,�ő啗����������,�ő�u�ԕ���,�ő�u�ԕ�����������
#(�N����),(m/s)   ,(16����),(m/s)   ,(16����)        ,(m/s)       ,(16����)            
2013/10/16 0:01,11.3,16,11.7,16,19.3,15
2013/10/16 0:02,11.7,16,11.7,16,24.5,15
2013/10/16 0:03,11.8,16,11.9,16,21.9,16
2013/10/16 0:04,11.7,16,11.9,16,22.3,2
2013/10/16 0:05,11.5,16,11.7,16,21.2,2
2013/10/16 0:06,11.7,16,11.8,16,23,16
2013/10/16 0:07,12.2,16,12.2,16,25.9,16
2013/10/16 0:08,12.4,16,12.4,16,24,16
2013/10/16 0:09,12.7,16,12.8,16,25.7,15
2013/10/16 0:10,12.6,16,12.8,16,24.1,1
2013/10/16 0:11,13.3,16,13.4,16,24.1,16
2013/10/16 0:12,12.8,16,13.3,16,17.2,14
2013/10/16 0:13,12.8,16,12.8,16,22.7,16
2013/10/16 0:14,13.1,16,13.1,16,24,15
2013/10/16 0:15,13,16,13.3,16,22.6,16
2013/10/16 0:16,13,16,13,16,22.6,16
2013/10/16 0:17,13.2,16,13.3,16,25.5,16
2013/10/16 0:18,13.2,16,13.3,16,21.6,1
2013/10/16 0:19,13.1,16,13.1,16,21.5,16
2013/10/16 0:20,13.2,16,13.3,16,22,2
2013/10/16 0:21,12.8,16,13.2,16,22,16
2013/10/16 0:22,13.1,16,13.1,16,17,16
2013/10/16 0:23,13.7,16,13.7,16,32.2,16
2013/10/16 0:24,13.4,16,13.7,16,24.9,1
2013/10/16 0:25,13.7,16,13.8,16,26,1
2013/10/16 0:26,13.6,16,13.7,16,17.4,16
2013/10/16 0:27,13.5,16,13.6,16,24.4,1
2013/10/16 0:28,13.4,16,13.6,16,24.4,1
2013/10/16 0:29,13.4,16,13.5,16,25.7,16
2013/10/16 0:30,13.4,16,13.5,16,23.2,1
2013/10/16 0:31,13,16,13.3,16,17,1
2013/10/16 0:32,12.8,1,13,16,17,16
2013/10/16 0:33,12.2,16,12.8,16,19.7,1
2013/10/16 0:34,11.7,16,12.2,16,17.2,1
2013/10/16 0:35,11.2,1,11.6,16,16.7,16
2013/10/16 0:36,11.2,1,11.3,16,17.4,2
2013/10/16 0:37,10.6,1,11.1,16,14.5,1
2013/10/16 0:38,10.1,1,10.6,16,16.3,15
2013/10/16 0:39,10.1,1,10.3,16,20.9,16
2013/10/16 0:40,9.7,1,10,16,20.9,16
2013/10/16 0:41,9.7,1,9.7,16,16.7,1
2013/10/16 0:42,9.7,1,9.8,1,13.9,1
2013/10/16 0:43,9.4,1,9.8,16,18.6,2
2013/10/16 0:44,9.3,1,9.4,16,12.1,16
2013/10/16 0:45,9,1,9.2,1,16.3,1
2013/10/16 0:46,8.9,1,9.1,1,18.4,1
2013/10/16 0:47,9.2,1,9.3,1,19,16
2013/10/16 0:48,9.2,1,9.2,1,14.7,16
2013/10/16 0:49,9,1,9.2,1,15.4,16
2013/10/16 0:50,9.1,1,9.1,1,25.2,16
2013/10/16 0:51,9.5,16,9.6,1,21.2,15
2013/10/16 0:52,9.4,16,9.6,1,17.8,15
2013/10/16 0:53,9.3,16,9.4,16,19.9,16
2013/10/16 0:54,9.8,16,9.8,16,22.2,2
2013/10/16 0:55,10,16,10,16,17.6,2
2013/10/16 0:56,10.1,16,10.1,16,15.7,16
2013/10/16 0:57,9.7,16,10.2,16,19.6,2
2013/10/16 0:58,9.7,1,9.7,16,17.4,16
2013/10/16 0:59,9.9,1,10,16,18.4,15
2013/10/16 1:00,9.8,1,9.9,16,20.4,2
2013/10/16 1:01,9.4,1,9.8,16,16.8,1
2013/10/16 1:02,10.3,1,10.3,1,24.5,15
2013/10/16 1:03,10.8,1,10.8,1,22.4,1
2013/10/16 1:04,10.6,1,11,1,19.7,16
2013/10/16 1:05,10.6,1,10.6,1,15.1,16
2013/10/16 1:06,10.4,1,10.6,1,17.4,1
2013/10/16 1:07,10.4,1,10.5,1,16.7,16
2013/10/16 1:08,10.7,16,10.7,1,15.3,2
2013/10/16 1:09,11.2,1,11.2,1,24.1,1
2013/10/16 1:10,11.6,1,11.6,1,23.7,2
2013/10/16 1:11,12,16,12,1,22,16
2013/10/16 1:12,11,16,11.9,1,18.6,2
2013/10/16 1:13,10.5,1,10.9,1,15.3,1
2013/10/16 1:14,10.7,1,10.7,1,23.8,16
2013/10/16 1:15,11.2,1,11.4,1,34.1,2
2013/10/16 1:16,11.2,1,11.3,1,17.8,1
2013/10/16 1:17,12.1,1,12.1,1,30.1,1
2013/10/16 1:18,12.5,1,12.5,1,26.3,16
2013/10/16 1:19,12.3,1,12.7,1,23.7,16
2013/10/16 1:20,12.4,1,12.4,1,36.2,16
2013/10/16 1:21,12.4,1,12.6,1,36.2,16
2013/10/16 1:22,13,1,13,1,21.3,1
2013/10/16 1:23,13.6,1,13.6,1,25.4,2
2013/10/16 1:24,13.3,1,13.7,1,13.6,16
2013/10/16 1:25,12.7,16,13.2,1,20.9,1
2013/10/16 1:26,13.1,16,13.1,1,23.6,16
2013/10/16 1:27,13.2,16,13.4,1,26.9,16
2013/10/16 1:28,12.4,16,13.1,1,18.6,16
2013/10/16 1:29,12,16,12.2,1,20.4,1
2013/10/16 1:30,12.3,16,12.3,1,25.9,1
2013/10/16 1:31,11.8,16,12,1,21.4,1
2013/10/16 1:32,11.6,16,11.8,1,21,16
2013/10/16 1:33,11.3,16,11.5,1,22.1,1
2013/10/16 1:34,12,16,12,16,20.2,1
2013/10/16 1:35,12.3,16,12.3,16,22.9,15
2013/10/16 1:36,11.9,16,12.4,16,26.1,16
2013/10/16 1:37,11.6,16,11.8,16,23.1,16
2013/10/16 1:38,11.6,1,11.7,16,20.3,1
2013/10/16 1:39,12.6,16,12.7,16,31.6,15
2013/10/16 1:40,12.2,16,12.8,16,26.5,16
2013/10/16 1:41,12.4,16,12.4,16,25.1,2
2013/10/16 1:42,12.4,1,12.5,16,27.9,1
2013/10/16 1:43,12.4,1,12.6,16,26.1,1
2013/10/16 1:44,12.2,16,12.4,16,24.4,2
2013/10/16 1:45,12.1,16,12.3,16,20.4,1
2013/10/16 1:46,11.9,16,12,16,14.9,16
2013/10/16 1:47,11.8,16,12,16,23.7,1
2013/10/16 1:48,12.3,1,12.3,16,30.6,16
2013/10/16 1:49,12,1,12.5,16,29,1
2013/10/16 1:50,12.4,1,12.4,1,28.8,1
2013/10/16 1:51,12.7,1,12.7,1,24.9,16
2013/10/16 1:52,13,16,13,1,30,16
2013/10/16 1:53,13.6,16,13.6,1,31.2,1
2013/10/16 1:54,13.4,1,13.7,1,24.3,16
2013/10/16 1:55,13.7,1,13.7,1,22.9,16
2013/10/16 1:56,13.8,16,13.8,16,23.3,16
2013/10/16 1:57,14.3,16,14.4,16,27,1
2013/10/16 1:58,14.6,16,14.7,16,24.8,16
2013/10/16 1:59,14.1,16,14.3,16,26.5,1
2013/10/16 2:00,13.8,16,14.2,16,22,15
2013/10/16 2:01,14.2,16,14.2,16,29.4,16
2013/10/16 2:02,14,16,14.3,16,26.8,16
2013/10/16 2:03,13.8,16,13.9,16,30.8,16
2013/10/16 2:04,14.3,16,14.3,16,33.7,16
2013/10/16 2:05,14.5,16,14.7,16,30.8,16
2013/10/16 2:06,14.9,16,15.1,16,28.7,2
2013/10/16 2:07,14.3,16,14.9,16,24.1,16
2013/10/16 2:08,14.1,16,14.1,16,28.6,15
2013/10/16 2:09,14.2,16,14.3,16,23.5,16
2013/10/16 2:10,14,16,14.2,16,22.2,15
2013/10/16 2:11,13.8,16,14.2,16,25.9,16
2013/10/16 2:12,14.1,16,14.2,16,30.6,16
2013/10/16 2:13,14.1,16,14.5,16,24.6,1
2013/10/16 2:14,13.8,1,13.9,16,25.5,1
2013/10/16 2:15,13.4,16,13.7,16,21.4,1
2013/10/16 2:16,13.3,16,13.3,16,25.6,2
2013/10/16 2:17,13.6,16,13.6,16,32,16
2013/10/16 2:18,13.1,1,13.6,16,25.7,1
2013/10/16 2:19,13.2,1,13.5,16,32.1,1
2013/10/16 2:20,13.5,1,13.5,16,39,1
2013/10/16 2:21,13.6,16,13.7,16,34.8,16
2013/10/16 2:22,13.7,16,13.8,16,30.3,16
2013/10/16 2:23,13.9,16,13.9,1,28.7,1
2013/10/16 2:24,14.5,16,14.6,16,30.3,16
2013/10/16 2:25,15.4,16,15.4,16,32.9,16
2013/10/16 2:26,15.8,16,15.8,16,27.8,1
2013/10/16 2:27,16,16,16.1,16,26.5,16
2013/10/16 2:28,17,16,17,16,29.2,1
2013/10/16 2:29,16.9,16,16.9,16,24.3,2
2013/10/16 2:30,17,1,17.2,16,24,16
2013/10/16 2:31,17.1,1,17.1,16,30.8,16
2013/10/16 2:32,17,1,17.1,16,30.3,16
2013/10/16 2:33,17.3,16,17.5,16,38,16
2013/10/16 2:34,16.8,16,17.3,16,24.7,1
2013/10/16 2:35,16.4,1,16.8,16,24.4,1
2013/10/16 2:36,16.1,1,16.4,16,24.4,1
2013/10/16 2:37,15.7,16,16,16,26.2,15
2013/10/16 2:38,14.8,1,15.7,16,23.2,2
2013/10/16 2:39,15,1,15,16,24.5,16
2013/10/16 2:40,14.6,16,14.9,16,26,15
2013/10/16 2:41,13.9,1,14.4,16,25.2,15
2013/10/16 2:42,13.5,16,13.8,16,20.6,15
2013/10/16 2:43,12.6,16,13.5,16,24.1,2
2013/10/16 2:44,12.3,16,12.7,16,18.7,16
2013/10/16 2:45,12.2,16,12.2,1,26.7,1
2013/10/16 2:46,11.8,16,12.2,1,22.9,16
2013/10/16 2:47,12.3,16,12.3,1,28.8,2
2013/10/16 2:48,12.3,16,12.3,1,20.3,16
2013/10/16 2:49,12.3,16,12.5,1,20.9,16
2013/10/16 2:50,13.2,16,13.2,16,34.1,1
2013/10/16 2:51,13.4,16,13.5,16,29.1,16
2013/10/16 2:52,14.1,16,14.1,16,28.7,16
2013/10/16 2:53,14.1,16,14.2,16,20.3,16
2013/10/16 2:54,14.8,16,14.8,16,33.9,1
2013/10/16 2:55,14.9,16,14.9,16,28.7,2
2013/10/16 2:56,14.9,16,15,16,20.1,15
2013/10/16 2:57,14.2,16,14.9,16,19.9,16
2013/10/16 2:58,14.6,16,14.6,16,28.8,16
2013/10/16 2:59,14.8,16,14.9,16,28.4,2
2013/10/16 3:00,13.7,16,14.6,16,19.3,1
2013/10/16 3:01,13.2,16,13.8,16,22.6,1
2013/10/16 3:02,12.5,16,13.1,16,26.9,2
2013/10/16 3:03,12.3,16,12.4,16,20.1,16
2013/10/16 3:04,12,16,12.5,16,21.2,16
2013/10/16 3:05,11.8,16,12,16,20.7,16
2013/10/16 3:06,12,1,12,16,20.7,16
2013/10/16 3:07,11.9,1,12,16,16.5,1
2013/10/16 3:08,11.8,1,12,16,19.5,14
2013/10/16 3:09,11.1,1,11.8,16,21.2,1
2013/10/16 3:10,12,16,12,16,31.2,15
2013/10/16 3:11,12.2,16,12.2,16,29.1,16
2013/10/16 3:12,12.8,16,12.9,16,29.2,16
2013/10/16 3:13,13.3,16,13.3,16,27.2,15
2013/10/16 3:14,13.5,16,13.6,16,28.8,16
2013/10/16 3:15,13.3,16,13.6,16,17.9,16
2013/10/16 3:16,13.1,16,13.3,16,17,16
2013/10/16 3:17,13.1,16,13.2,16,18,2
2013/10/16 3:18,12.9,16,13.1,16,18.1,1
2013/10/16 3:19,13.2,16,13.3,16,24.3,16
2013/10/16 3:20,12.3,16,13.3,16,14.9,15
2013/10/16 3:21,11.8,16,12.2,16,19.6,2
2013/10/16 3:22,10.8,16,11.8,16,14.8,16
2013/10/16 3:23,10.4,16,10.8,16,22.4,16
2013/10/16 3:24,9.7,16,10.1,16,17.5,16
2013/10/16 3:25,9.5,16,9.6,16,18.6,2
2013/10/16 3:26,9.8,16,9.8,16,25.4,16
2013/10/16 3:27,10.1,16,10.1,16,21.3,15
2013/10/16 3:28,10.1,16,10.3,16,18.6,1
2013/10/16 3:29,10.1,16,10.1,16,18.4,1
2013/10/16 3:30,10.8,16,10.8,16,22.4,15
2013/10/16 3:31,10.9,16,10.9,16,19.6,15
2013/10/16 3:32,11.4,16,11.4,16,22.6,1
2013/10/16 3:33,11.5,16,11.5,16,22.3,1
2013/10/16 3:34,12.1,16,12.1,16,25.4,16
2013/10/16 3:35,12.5,16,12.5,16,29.4,16
2013/10/16 3:36,12.6,16,12.9,16,22.4,16
2013/10/16 3:37,12.3,16,12.5,16,17.4,16
2013/10/16 3:38,12,16,12.3,16,23,15
2013/10/16 3:39,11.9,16,12.1,16,16.8,16
2013/10/16 3:40,11.4,16,11.9,16,23.3,1
2013/10/16 3:41,11.2,16,11.5,16,19.9,2
2013/10/16 3:42,11.2,16,11.3,16,18.4,1
2013/10/16 3:43,10.9,16,11.3,16,19.2,2
2013/10/16 3:44,10.5,1,10.8,16,19.7,1
2013/10/16 3:45,10.1,1,10.3,16,17.4,16
2013/10/16 3:46,9.7,1,10.1,16,15.2,16
2013/10/16 3:47,9.3,1,9.8,16,20.3,1
2013/10/16 3:48,9.6,1,9.6,16,18.3,16
2013/10/16 3:49,10,1,10,16,19.8,16
2013/10/16 3:50,10,1,10,16,20.7,1
2013/10/16 3:51,9.9,16,9.9,16,16.7,13
2013/10/16 3:52,10.2,16,10.3,16,23.5,1
2013/10/16 3:53,10.8,16,10.8,16,24.8,16
2013/10/16 3:54,10.8,16,10.9,16,14.7,16
2013/10/16 3:55,10.7,16,10.8,16,15.8,15
2013/10/16 3:56,11,16,11,16,24,15
2013/10/16 3:57,11.7,16,11.8,16,21.4,1
2013/10/16 3:58,12,16,12,16,20.6,1
2013/10/16 3:59,11.5,16,11.9,16,13.3,16
2013/10/16 4:00,11.4,16,11.5,16,15.7,16
2013/10/16 4:01,11.6,16,11.7,16,23.8,15
2013/10/16 4:02,11.2,16,11.6,16,17.8,1
2013/10/16 4:03,10.8,16,11.2,16,22.3,1
2013/10/16 4:04,10.7,16,10.7,16,20.9,1
2013/10/16 4:05,11.5,16,11.5,16,26.9,16
2013/10/16 4:06,12,16,12,16,25.2,16
2013/10/16 4:07,12,16,12,16,25.2,1
2013/10/16 4:08,12.5,16,12.5,16,32.8,16
2013/10/16 4:09,12.8,16,12.8,16,24.9,1
2013/10/16 4:10,12.9,16,13.1,16,22.3,16
2013/10/16 4:11,12.5,16,12.9,16,18.1,1
2013/10/16 4:12,12.7,1,12.8,16,19.6,1
2013/10/16 4:13,12.1,16,12.7,16,14.7,16
2013/10/16 4:14,12.2,16,12.5,16,17.8,16
2013/10/16 4:15,11.5,16,12.2,16,17.5,15
2013/10/16 4:16,10.8,16,11.6,16,26,16
2013/10/16 4:17,10.4,16,10.8,16,18.5,2
2013/10/16 4:18,9.7,16,10.3,16,22.1,1
2013/10/16 4:19,9.7,16,9.7,16,18.3,16
2013/10/16 4:20,9.6,16,9.7,16,16,16
2013/10/16 4:21,9.9,1,9.9,16,21.3,1
2013/10/16 4:22,9.8,16,9.9,1,18.1,16
2013/10/16 4:23,10.1,16,10.1,16,16.5,16
2013/10/16 4:24,9.8,1,10.1,16,15.1,2
2013/10/16 4:25,9.9,1,10,16,18.7,16
2013/10/16 4:26,10.1,1,10.1,16,21.2,2
2013/10/16 4:27,9.8,1,10.2,16,17.6,16
2013/10/16 4:28,10.1,16,10.1,1,19.5,15
2013/10/16 4:29,9.9,16,10.2,1,17.7,2
2013/10/16 4:30,10.1,16,10.1,1,21.9,1
2013/10/16 4:31,9.7,16,10.1,1,20.4,1
2013/10/16 4:32,9.5,16,9.7,1,15.3,15
2013/10/16 4:33,9.5,16,9.5,1,18.5,1
2013/10/16 4:34,9.3,16,9.4,1,17,1
2013/10/16 4:35,9.5,16,9.5,1,20.7,1
2013/10/16 4:36,9.2,16,9.6,1,16.1,1
2013/10/16 4:37,9.4,16,9.4,16,27.6,1
2013/10/16 4:38,9.2,16,9.5,16,19.6,2
2013/10/16 4:39,8.8,16,9.1,16,13.1,1
2013/10/16 4:40,9.1,1,9.1,16,20.5,2
2013/10/16 4:41,8.8,1,9,16,13.3,1
2013/10/16 4:42,9.2,1,9.2,16,20.1,2
2013/10/16 4:43,9.4,1,9.5,16,17.5,16
2013/10/16 4:44,10.1,1,10.1,1,19.4,15
2013/10/16 4:45,9.5,1,10.1,1,14.9,16
2013/10/16 4:46,9.3,1,9.4,1,15.6,1
2013/10/16 4:47,9.9,1,10,1,24,2
2013/10/16 4:48,9.6,1,9.9,1,15.8,16
2013/10/16 4:49,9.8,1,9.8,1,19.9,16
2013/10/16 4:50,9.5,16,9.8,1,18.4,16
2013/10/16 4:51,10.1,16,10.2,16,20.3,16
2013/10/16 4:52,9.9,16,10.2,16,16.1,16
2013/10/16 4:53,10.1,16,10.1,16,19.9,16
2013/10/16 4:54,10,16,10.1,16,20.9,16
2013/10/16 4:55,10.4,16,10.4,16,17.9,15
2013/10/16 4:56,10.6,16,10.6,16,16.3,16
2013/10/16 4:57,9.8,16,10.6,16,14.2,1
2013/10/16 4:58,9.9,16,10,16,12.6,15
2013/10/16 4:59,9.9,16,10,16,14.7,1
2013/10/16 5:00,10,16,10,16,16,15
2013/10/16 5:01,9.6,16,10,16,12.8,16
2013/10/16 5:02,9.8,16,9.9,16,21.5,15
2013/10/16 5:03,9.6,16,9.7,16,21.8,15
2013/10/16 5:04,9.1,16,9.6,16,13.6,16
2013/10/16 5:05,9.2,16,9.3,16,21.4,16
2013/10/16 5:06,9.3,16,9.3,16,26,16
2013/10/16 5:07,9.6,16,9.6,16,27.1,16
2013/10/16 5:08,10.2,16,10.2,16,25.1,15
2013/10/16 5:09,10.2,16,10.2,16,16.8,16
2013/10/16 5:10,10,16,10.2,16,18.8,15
2013/10/16 5:11,10.2,16,10.3,16,17.9,16
2013/10/16 5:12,9.8,16,10.2,16,17.2,15
2013/10/16 5:13,9.6,16,9.7,16,17.6,16
2013/10/16 5:14,10.2,16,10.2,16,27,16
2013/10/16 5:15,10.2,16,10.3,16,22,16
2013/10/16 5:16,10,16,10.4,16,19.8,2
2013/10/16 5:17,9.9,16,10,16,17.9,14
2013/10/16 5:18,9.1,16,9.9,16,15.9,16
2013/10/16 5:19,9.3,16,9.3,16,19.9,15
2013/10/16 5:20,9.1,16,9.2,16,16.1,1
2013/10/16 5:21,9,16,9.1,16,17.1,16
2013/10/16 5:22,9.5,16,9.5,16,19.5,16
2013/10/16 5:23,9.8,16,9.8,16,22.6,16
2013/10/16 5:24,9.3,16,9.8,16,19.9,16
2013/10/16 5:25,9.1,16,9.4,16,17.1,15
2013/10/16 5:26,9.2,16,9.2,16,14.3,16
2013/10/16 5:27,9,16,9.3,16,15,16
2013/10/16 5:28,9.3,16,9.3,16,20.1,15
2013/10/16 5:29,9.2,16,9.4,16,18.1,15
2013/10/16 5:30,9.2,16,9.4,16,16.2,1
2013/10/16 5:31,9.1,16,9.2,16,15.4,16
2013/10/16 5:32,8.5,16,9.1,16,13.1,16
2013/10/16 5:33,8.5,16,8.7,16,21.3,16
2013/10/16 5:34,8.8,16,8.8,16,20.7,15
2013/10/16 5:35,8.1,16,8.8,16,10.1,1
2013/10/16 5:36,7.7,16,8,16,10.9,1
2013/10/16 5:37,7.7,16,7.8,16,15.2,1
2013/10/16 5:38,7.7,16,7.9,16,17.1,1
2013/10/16 5:39,7.5,16,7.6,16,12.8,1
2013/10/16 5:40,7.8,16,7.8,16,17.6,2
2013/10/16 5:41,7.8,16,7.8,16,16.1,16
2013/10/16 5:42,8.1,16,8.1,16,13.5,15
2013/10/16 5:43,7.8,16,8.1,16,16.5,2
2013/10/16 5:44,7.4,16,7.8,16,11,16
2013/10/16 5:45,7.9,16,7.9,16,19.2,16
2013/10/16 5:46,8.5,16,8.5,16,20.5,16
2013/10/16 5:47,8.4,16,8.5,16,13.1,16
2013/10/16 5:48,8.5,16,8.5,16,13.8,15
2013/10/16 5:49,8.9,16,8.9,16,16.9,15
2013/10/16 5:50,8.6,16,9,16,17.6,16
2013/10/16 5:51,8.6,16,8.7,16,12.7,15
2013/10/16 5:52,8.7,16,8.7,16,15.2,2
2013/10/16 5:53,8.6,16,8.7,16,14.7,1
2013/10/16 5:54,8.8,16,8.9,16,18,1
2013/10/16 5:55,8.7,16,8.9,16,15.7,2
2013/10/16 5:56,8.9,16,8.9,16,18.3,15
2013/10/16 5:57,9,16,9,16,13.5,16
2013/10/16 5:58,8.6,16,9,16,9,16
2013/10/16 5:59,8.2,16,8.6,16,12.2,16
2013/10/16 6:00,8.3,16,8.4,16,16.5,14
2013/10/16 6:01,8.2,16,8.3,16,11.8,16
2013/10/16 6:02,8.2,16,8.2,16,17.5,16
2013/10/16 6:03,8.7,16,8.7,16,21.9,15
2013/10/16 6:04,8.4,16,8.8,16,15.6,15
2013/10/16 6:05,8.8,16,8.8,16,26.1,15
2013/10/16 6:06,8.4,16,8.7,16,15.9,1
2013/10/16 6:07,8.3,16,8.3,16,16.3,15
2013/10/16 6:08,8.6,16,8.6,16,17,15
2013/10/16 6:09,8.8,16,8.8,16,17.9,15
2013/10/16 6:10,9,16,9,16,15.2,16
2013/10/16 6:11,9.2,16,9.4,16,20.3,15
2013/10/16 6:12,9.2,16,9.3,16,15,1
2013/10/16 6:13,8.8,16,9.2,16,21.4,16
2013/10/16 6:14,9.3,16,9.3,16,25.3,16
2013/10/16 6:15,8.9,16,9.3,16,12.3,1
2013/10/16 6:16,8.9,16,9,16,14,1
2013/10/16 6:17,9,16,9,16,19.2,16
2013/10/16 6:18,9.5,16,9.5,16,25.1,15
2013/10/16 6:19,9.7,16,9.7,16,20.3,1
2013/10/16 6:20,9.8,16,9.9,16,18.4,15
2013/10/16 6:21,9.6,16,9.8,16,13.2,1
2013/10/16 6:22,9.3,16,9.6,16,13.9,2
2013/10/16 6:23,9,16,9.3,16,12.2,16
2013/10/16 6:24,8.3,16,8.9,16,11.9,16
2013/10/16 6:25,8.4,16,8.4,16,14.2,16
2013/10/16 6:26,8,16,8.4,16,10.9,1
2013/10/16 6:27,8.1,16,8.2,16,15.2,15
2013/10/16 6:28,7.2,16,8,16,14.7,15
2013/10/16 6:29,7.2,16,7.3,16,21,16
2013/10/16 6:30,7.3,16,7.4,16,21,15
2013/10/16 6:31,7.9,16,7.9,16,19.8,16
2013/10/16 6:32,8.3,16,8.3,16,19.7,16
2013/10/16 6:33,8.8,16,8.8,16,19.9,16
2013/10/16 6:34,9.5,16,9.5,16,31.4,15
2013/10/16 6:35,10.4,16,10.4,16,25.5,15
2013/10/16 6:36,10.9,16,10.9,16,23.7,16
2013/10/16 6:37,11.7,16,11.7,16,28.3,16
2013/10/16 6:38,12.7,16,12.7,16,25.7,16
2013/10/16 6:39,12.8,16,12.8,16,24.9,16
2013/10/16 6:40,13,16,13.1,16,24.9,16
2013/10/16 6:41,12.6,16,12.9,16,12.4,16
2013/10/16 6:42,12.5,16,12.6,16,17,15
2013/10/16 6:43,13.1,16,13.1,16,28.5,15
2013/10/16 6:44,13.1,16,13.1,16,26.2,15
2013/10/16 6:45,12.8,16,13.1,16,20.6,16
2013/10/16 6:46,13,16,13,16,18.8,15
2013/10/16 6:47,12.1,16,13,16,20.2,15
2013/10/16 6:48,11.7,16,12.1,16,16.8,15
2013/10/16 6:49,11.3,16,11.7,16,19.9,15
2013/10/16 6:50,10.5,16,11.2,16,15,16
2013/10/16 6:51,10.7,16,10.8,16,19.8,15
2013/10/16 6:52,10.6,16,10.8,16,18.4,16
2013/10/16 6:53,10.5,16,10.5,16,25.1,16
2013/10/16 6:54,10.7,16,10.9,16,22.3,16
2013/10/16 6:55,11,16,11.1,16,26.7,15
2013/10/16 6:56,10.6,16,10.9,16,19.8,15
2013/10/16 6:57,10.8,16,10.8,16,18.6,16
2013/10/16 6:58,10.7,16,10.7,16,16.6,2
2013/10/16 6:59,10.9,16,11,16,21.3,15
2013/10/16 7:00,11.5,16,11.5,16,19.7,15
2013/10/16 7:01,11.4,16,11.5,16,19.2,15
2013/10/16 7:02,11.4,16,11.5,16,15.3,15
2013/10/16 7:03,10.8,16,11.4,16,13.5,15
2013/10/16 7:04,10.1,16,10.8,16,15.2,1
2013/10/16 7:05,9.7,16,10,16,22.7,15
2013/10/16 7:06,10.2,16,10.2,16,27.9,15
2013/10/16 7:07,10,16,10.2,16,19,16
2013/10/16 7:08,9.7,16,10.1,16,13.8,15
2013/10/16 7:09,9.4,16,9.7,16,16.5,16
2013/10/16 7:10,8.8,16,9.3,16,11.8,1
2013/10/16 7:11,8.4,16,8.8,16,19.6,14
2013/10/16 7:12,8.6,16,8.6,16,18.6,15
2013/10/16 7:13,8.8,16,8.9,16,19.2,15
2013/10/16 7:14,9.2,16,9.2,16,24.5,15
2013/10/16 7:15,9.3,16,9.3,16,18.6,15
2013/10/16 7:16,9,16,9.2,16,20.4,1
2013/10/16 7:17,8.9,16,9.2,16,13.9,13
2013/10/16 7:18,8.9,16,8.9,16,18.9,16
2013/10/16 7:19,9,16,9.1,16,18.7,16
2013/10/16 7:20,9.1,16,9.1,16,12.8,16
2013/10/16 7:21,9.4,16,9.4,16,16.6,16
2013/10/16 7:22,9.4,16,9.4,16,22.9,15
2013/10/16 7:23,9.3,16,9.4,16,20.6,15
2013/10/16 7:24,9.4,16,9.4,16,19.5,15
2013/10/16 7:25,9.6,16,9.9,16,27.6,15
2013/10/16 7:26,9,16,9.6,16,12.4,16
2013/10/16 7:27,9.2,16,9.2,16,15,1
2013/10/16 7:28,9.1,16,9.3,16,12.8,16
2013/10/16 7:29,9,16,9.2,16,16.5,15
2013/10/16 7:30,9,16,9.1,16,16.2,15
2013/10/16 7:31,8.8,16,9.1,16,13.6,1
2013/10/16 7:32,8.6,16,8.8,16,19,1
2013/10/16 7:33,8.5,16,8.5,16,16.8,16
2013/10/16 7:34,8.1,16,8.6,16,14.3,16
2013/10/16 7:35,7.7,16,7.8,16,23.2,15
2013/10/16 7:36,8.1,16,8.1,16,22.3,15
2013/10/16 7:37,8.8,16,8.8,16,21.5,16
2013/10/16 7:38,9.1,16,9.1,16,16.8,16
2013/10/16 7:39,9.4,16,9.4,16,18.1,14
2013/10/16 7:40,9.8,16,9.8,16,23.5,16
2013/10/16 7:41,10,16,10,16,17.4,15
2013/10/16 7:42,10.1,16,10.2,16,15.2,16
2013/10/16 7:43,10,16,10.1,16,16.7,16
2013/10/16 7:44,10.2,16,10.2,16,15,15
2013/10/16 7:45,10.1,16,10.2,16,18.8,16
2013/10/16 7:46,10.4,16,10.5,16,24.3,15
2013/10/16 7:47,10.3,16,10.4,16,27.9,16
2013/10/16 7:48,10.2,16,10.3,16,20.4,15
2013/10/16 7:49,9.9,16,10.2,16,11.8,15
2013/10/16 7:50,9.8,16,9.8,16,21.4,15
2013/10/16 7:51,9.6,16,9.7,16,21,16
2013/10/16 7:52,9.7,16,9.7,16,19.7,1
2013/10/16 7:53,9.7,16,9.9,16,18.8,16
2013/10/16 7:54,10,16,10,16,18.9,15
2013/10/16 7:55,10,16,10.1,16,16.5,15
2013/10/16 7:56,9.5,16,9.8,16,11.6,1
2013/10/16 7:57,9.1,16,9.5,16,17.6,16
2013/10/16 7:58,8.9,16,9.1,16,17.5,15
2013/10/16 7:59,9,16,9,16,15.6,15
2013/10/16 8:00,8.8,16,9,16,17.1,16
2013/10/16 8:01,9.2,16,9.2,16,27.6,16
2013/10/16 8:02,9,16,9.2,16,15.2,15
2013/10/16 8:03,9.3,16,9.3,16,21.3,16
2013/10/16 8:04,9.4,16,9.4,16,24.8,15
2013/10/16 8:05,9.7,16,9.7,16,20.2,15
2013/10/16 8:06,10.2,16,10.2,16,20.7,16
2013/10/16 8:07,10.3,16,10.3,16,19.3,16
2013/10/16 8:08,10.7,16,10.8,16,21.4,16
2013/10/16 8:09,11,16,11,16,19.8,15
2013/10/16 8:10,11.3,16,11.4,16,19.7,16
2013/10/16 8:11,11.8,16,11.8,16,25.7,15
2013/10/16 8:12,12.3,16,12.3,16,25.7,15
2013/10/16 8:13,12.2,16,12.2,16,25.5,15
2013/10/16 8:14,11.9,16,12.3,16,21.8,16
2013/10/16 8:15,11.7,16,11.9,16,18.1,15
2013/10/16 8:16,11.8,16,11.9,16,22.4,16
2013/10/16 8:17,11.7,16,11.8,16,14.9,14
2013/10/16 8:18,11.3,16,11.6,16,19.7,16
2013/10/16 8:19,10.9,16,11.3,16,12.2,16
2013/10/16 8:20,11.3,16,11.3,16,33.4,15
2013/10/16 8:21,10.8,16,11.3,16,24.3,16
2013/10/16 8:22,10.9,16,11,16,19.4,15
2013/10/16 8:23,10.8,16,11,16,19.9,15
2013/10/16 8:24,10.7,16,10.8,16,24.5,15
2013/10/16 8:25,11.1,16,11.1,16,23.2,16
2013/10/16 8:26,10.9,16,11.2,16,18.5,16
2013/10/16 8:27,11.2,16,11.2,16,21,15
2013/10/16 8:28,11.8,16,11.8,16,26.2,15
2013/10/16 8:29,12.4,16,12.4,16,18.5,15
2013/10/16 8:30,11.9,16,12.3,16,14.8,15
2013/10/16 8:31,11.6,16,11.7,16,17.7,15
2013/10/16 8:32,11.2,15,11.7,16,16.9,15
2013/10/16 8:33,10.9,15,11.2,16,14.3,1
2013/10/16 8:34,10.8,15,10.9,16,16,15
2013/10/16 8:35,10.5,15,10.8,16,15.4,16
2013/10/16 8:36,9.9,15,10.5,16,15.1,15
2013/10/16 8:37,9.9,15,10.1,16,20.6,16
2013/10/16 8:38,9.4,15,9.9,16,18.8,14
2013/10/16 8:39,9.4,15,9.5,16,21.3,15
2013/10/16 8:40,9.6,15,9.6,16,18.6,16
2013/10/16 8:41,9.6,15,9.6,15,18.1,15
2013/10/16 8:42,10.2,15,10.2,16,23.8,15
2013/10/16 8:43,10.4,15,10.4,15,20.2,15
2013/10/16 8:44,10.4,15,10.5,15,19.2,16
2013/10/16 8:45,10.9,15,10.9,15,21.8,1
2013/10/16 8:46,11.5,16,11.5,16,20.4,16
2013/10/16 8:47,11.2,16,11.4,16,15.3,14
2013/10/16 8:48,11.6,16,11.6,16,22.7,16
2013/10/16 8:49,11.4,16,11.7,16,22.4,16
2013/10/16 8:50,11.4,16,11.4,16,18.9,15
2013/10/16 8:51,11.1,16,11.4,16,15,15
2013/10/16 8:52,10.6,16,11.1,16,16.7,14
2013/10/16 8:53,10.6,16,10.8,16,15.6,16
2013/10/16 8:54,10.6,16,10.8,16,16.5,15
2013/10/16 8:55,9.7,16,10.4,16,11.6,16
2013/10/16 8:56,9.5,16,9.7,16,23.9,16
2013/10/16 8:57,9.3,16,9.5,16,15.9,16
2013/10/16 8:58,9.2,16,9.3,16,25.5,15
2013/10/16 8:59,9.1,16,9.1,16,14.5,15
2013/10/16 9:00,9.1,16,9.4,16,18.9,16
2013/10/16 9:01,9.2,16,9.2,16,17,16
2013/10/16 9:02,9.2,16,9.2,16,19,15
2013/10/16 9:03,9.3,16,9.3,16,19.9,15
2013/10/16 9:04,9.1,16,9.3,16,11.8,14
2013/10/16 9:05,9.1,16,9.3,16,13,15
2013/10/16 9:06,8.9,15,9.2,16,16.2,15
2013/10/16 9:07,9.1,15,9.2,16,20.5,15
2013/10/16 9:08,8.6,16,9.1,16,12.2,16
2013/10/16 9:09,8.4,16,8.6,16,13.5,15
2013/10/16 9:10,8.1,16,8.4,16,14.4,1
2013/10/16 9:11,7.9,16,8.2,16,9.9,16
2013/10/16 9:12,7.7,16,7.8,16,12.3,1
2013/10/16 9:13,7.5,16,7.6,16,13.9,16
2013/10/16 9:14,7.3,16,7.5,16,10.7,15
2013/10/16 9:15,7.8,16,7.8,16,20.7,16
2013/10/16 9:16,7.9,16,8,15,17.2,16
2013/10/16 9:17,7.6,16,7.8,15,15.6,16
2013/10/16 9:18,7.9,16,7.9,16,15.1,16
2013/10/16 9:19,7.9,16,8.1,16,14.9,16
2013/10/16 9:20,7.8,16,7.9,16,10.6,1
2013/10/16 9:21,7.9,16,7.9,16,12.5,16
2013/10/16 9:22,8,16,8,16,15.2,15
2013/10/16 9:23,7.7,16,8,16,13.9,14
2013/10/16 9:24,7.6,16,7.7,16,11.3,1
2013/10/16 9:25,7.4,16,7.6,16,15.2,15
2013/10/16 9:26,7,16,7.4,16,12.1,16
2013/10/16 9:27,7,16,7,16,13.1,15
2013/10/16 9:28,7,16,7,16,13,14
2013/10/16 9:29,7.3,16,7.3,16,21.8,16
2013/10/16 9:30,7.5,16,7.5,16,14.7,16
2013/10/16 9:31,7.6,16,7.7,16,13.6,16
2013/10/16 9:32,8,16,8,16,22,16
2013/10/16 9:33,8.1,16,8.1,16,22.3,16
2013/10/16 9:34,8.5,16,8.5,16,12.5,14
2013/10/16 9:35,8.5,16,8.6,16,11.6,16
2013/10/16 9:36,8.6,16,8.6,16,11.3,15
2013/10/16 9:37,8.6,15,8.6,16,14,15
2013/10/16 9:38,8.5,15,8.7,15,14.9,16
2013/10/16 9:39,7.9,15,8.5,15,9.5,15
2013/10/16 9:40,7.7,15,7.8,15,9.1,15
2013/10/16 9:41,7.4,15,7.6,15,8.9,15
2013/10/16 9:42,6.7,15,7.4,15,12.1,16
2013/10/16 9:43,6.3,15,6.7,15,7.7,15
2013/10/16 9:44,6.1,15,6.3,15,12.7,15
2013/10/16 9:45,6.2,15,6.2,15,11.7,15
2013/10/16 9:46,6.1,15,6.1,15,9.9,15
2013/10/16 9:47,6.1,15,6.2,15,14.5,16
2013/10/16 9:48,6,15,6.1,15,15.2,16
2013/10/16 9:49,6.1,15,6.1,15,11.9,1
2013/10/16 9:50,6.3,16,6.3,15,15.9,1
2013/10/16 9:51,6.3,16,6.3,15,6.1,2
2013/10/16 9:52,6.2,16,6.2,15,6.7,15
2013/10/16 9:53,6.2,16,6.2,15,8.1,1
2013/10/16 9:54,6.1,16,6.3,16,8.6,1
2013/10/16 9:55,5.9,16,6,16,10.6,15
2013/10/16 9:56,5.7,16,5.9,16,7.9,15
2013/10/16 9:57,5.4,16,5.7,16,9.5,16
2013/10/16 9:58,5,16,5.3,16,6.9,8
2013/10/16 9:59,4.8,16,4.9,16,7.8,1
2013/10/16 10:00,4.4,16,4.7,16,8.9,15
2013/10/16 10:01,4.3,16,4.4,16,10,1
2013/10/16 10:02,4.9,16,4.9,16,15.7,15
2013/10/16 10:03,4.8,15,4.9,16,8.2,15
2013/10/16 10:04,4.8,16,4.8,16,11,1
2013/10/16 10:05,5,16,5.1,16,14.4,15
2013/10/16 10:06,5.4,16,5.4,16,12.4,16
2013/10/16 10:07,5.4,16,5.5,16,10.8,15
2013/10/16 10:08,5.6,16,5.6,16,8.2,15
2013/10/16 10:09,5.5,16,5.5,16,7,16
2013/10/16 10:10,5.3,16,5.4,16,5.1,14
2013/10/16 10:11,5.4,16,5.4,16,8.5,2